Location: Stilling
(56.0622°N, 9.9882°E)
Time: 23:10:08
(UTC+00:00)

IRIDIUM 104 - Pass Details

Date: 13 July 2020
Orbit: 776 x 779 km, 86.4° (Epoch: 03 August)

Event Time Altitude Azimuth Distance (km) Brightness Sun altitude
Exits shadow 22:16:18 13° 182° (S) 2,119 6.0 -10.9°
Maximum altitude 22:21:00 87° 94° (E) 789 4.3 -11.1°
Drops below altitude 10° 22:26:16 10° 6° (N) 2,344 8.1 -11.3°
Sets 22:28:37 0° 6° (N) 3,276 9.1 -11.3°
